Litchfield, MN

10:08 PM CDT on April 19, 2018 (GMT -0500)
Litchfield Municipal

Weather History for KLJF - July, 2013

Change the Weather History Date:

Friday, July 5, 2013

  Actual Average Record
Temperature  
Mean Temperature 79 °F -  
Max Temperature 89 °F 84 °F 98 °F (1988)
Min Temperature 69 °F 60 °F 45 °F (1972)
Cooling Degree Days 14    
Growing Degree Days 29 (Base 50)    
Moisture  
Dew Point 60 °F    
Average Humidity 52    
Maximum Humidity 65    
Minimum Humidity 36    
Precipitation  
Precipitation 0.00 in - - ()
Sea Level Pressure  
Sea Level Pressure 29.83 in    
Wind  
Wind Speed 6 mph (South)    
Max Wind Speed 12 mph    
Max Gust Speed 20 mph    
Visibility 10 miles    
Events      
Averages and records for this station are not official NWS values.
T = Trace of Precipitation, MM = Missing Value Source: NWS Daily Summary

Daily Weather History Graph

Daily Weather History Graph

Search for Another Location

Airport or City:

Astronomy

Jul. 05, 2013 Rise Set
Actual Time 5:37 AM CDT 9:07 PM CDT
Civil Twilight 5:00 AM CDT 9:44 PM CDT
Nautical Twilight 4:11 AM CDT 10:33 PM CDT
Astronomical Twilight 3:08 AM CDT 11:36 PM CDT
Moon 3:40 AM CDT (7/5) 7:00 PM CDT (7/5)
Length of Visible Light 16h 44m
Length of Day
15h 30m
Waning Crescent, 6% of the Moon is Illuminated
Jul 5
Waning Crescent
Jul 8
New
Jul 15
First Quarter
Jul 22
Full
Jul 29
Last Quarter

Hourly Weather History & Observations

Time (CDT) Temp. Heat Index Dew Point Humidity Pressure Visibility Wind Dir Wind Speed Gust Speed Precip Events Conditions
12:13 AM 75.2 °F - 55.4 °F 50% 29.87 in 10.0 mi SSE 4.6 mph - N/A   Clear
12:33 AM 75.2 °F - 55.4 °F 50% 29.87 in 10.0 mi SSE 6.9 mph - N/A   Clear
12:52 AM 75.2 °F - 55.4 °F 50% 29.87 in 10.0 mi SSE 6.9 mph - N/A   Clear
1:13 AM 75.2 °F - 55.4 °F 50% 29.87 in 10.0 mi SSE 5.8 mph - N/A   Clear
1:32 AM 73.4 °F - 55.4 °F 53% 29.87 in 10.0 mi South 4.6 mph - N/A   Clear
1:53 AM 73.4 °F - 55.4 °F 53% 29.87 in 10.0 mi SSE 5.8 mph - N/A   Clear
2:13 AM 73.4 °F - 55.4 °F 53% 29.87 in 10.0 mi SSE 5.8 mph - N/A   Clear
2:33 AM 73.4 °F - 55.4 °F 53% 29.88 in 10.0 mi SSE 5.8 mph - N/A   Clear
2:53 AM 73.4 °F - 55.4 °F 53% 29.88 in 10.0 mi SSE 6.9 mph - N/A   Clear
3:13 AM 73.4 °F - 55.4 °F 53% 29.88 in 10.0 mi SSE 4.6 mph - N/A   Clear
3:33 AM 71.6 °F - 55.4 °F 57% 29.88 in 10.0 mi South 6.9 mph - N/A   Clear
3:53 AM 71.6 °F - 55.4 °F 57% 29.88 in 10.0 mi South 5.8 mph - N/A   Clear
4:13 AM 71.6 °F - 55.4 °F 57% 29.87 in 10.0 mi SSE 4.6 mph - N/A   Clear
4:33 AM 71.6 °F - 57.2 °F 60% 29.87 in 10.0 mi SSE 5.8 mph - N/A   Clear
4:53 AM 71.6 °F - 57.2 °F 60% 29.87 in 10.0 mi South 6.9 mph - N/A   Scattered Clouds
5:13 AM 71.6 °F - 57.2 °F 60% 29.86 in 10.0 mi SSE 6.9 mph - N/A   Clear
5:33 AM 69.8 °F - 57.2 °F 64% 29.86 in 10.0 mi SSE 6.9 mph - N/A   Clear
5:53 AM 71.6 °F - 57.2 °F 60% 29.86 in 10.0 mi SSE 6.9 mph - N/A   Scattered Clouds
6:13 AM 71.6 °F - 57.2 °F 60% 29.86 in 10.0 mi SSE 8.1 mph - N/A   Clear
6:33 AM 71.6 °F - 57.2 °F 60% 29.85 in 10.0 mi SSE 10.4 mph 16.1 mph N/A   Clear
6:53 AM 71.6 °F - 57.2 °F 60% 29.85 in 10.0 mi SSE 6.9 mph - N/A   Scattered Clouds
7:12 AM 71.6 °F - 57.2 °F 60% 29.85 in 10.0 mi South 6.9 mph - N/A   Scattered Clouds
7:33 AM 73.4 °F - 57.2 °F 57% 29.85 in 10.0 mi South 6.9 mph - N/A   Scattered Clouds
7:52 AM 73.4 °F - 57.2 °F 57% 29.85 in 10.0 mi SSE 6.9 mph - N/A   Scattered Clouds
8:13 AM 71.6 °F - 57.2 °F 60% 29.85 in 10.0 mi SSE 3.5 mph - N/A   Scattered Clouds
8:33 AM 73.4 °F - 59.0 °F 61% 29.85 in 10.0 mi South 4.6 mph - N/A   Scattered Clouds
8:52 AM 71.6 °F - 59.0 °F 64% 29.85 in 10.0 mi South 4.6 mph - N/A   Scattered Clouds
9:13 AM 73.4 °F - 60.8 °F 65% 29.85 in 10.0 mi SSE 4.6 mph - N/A   Clear
9:33 AM 75.2 °F - 60.8 °F 61% 29.85 in 10.0 mi South 5.8 mph - N/A   Clear
9:52 AM 75.2 °F - 60.8 °F 61% 29.85 in 10.0 mi South 8.1 mph - N/A   Clear
10:13 AM 75.2 °F - 60.8 °F 61% 29.85 in 10.0 mi South 4.6 mph - N/A   Clear
10:33 AM 75.2 °F - 60.8 °F 61% 29.85 in 10.0 mi South 4.6 mph - N/A   Clear
10:52 AM 77.0 °F - 60.8 °F 57% 29.84 in 10.0 mi South 6.9 mph - N/A   Clear
11:13 AM 80.6 °F 81.5 °F 60.8 °F 51% 29.84 in 10.0 mi South 8.1 mph - N/A   Clear
11:33 AM 80.6 °F 81.5 °F 60.8 °F 51% 29.83 in 10.0 mi SSE 6.9 mph 16.1 mph N/A   Clear
11:52 AM 78.8 °F - 60.8 °F 54% 29.83 in 10.0 mi SSE 11.5 mph - N/A   Clear
12:13 PM 80.6 °F 81.5 °F 60.8 °F 51% 29.83 in 10.0 mi SSE 9.2 mph - N/A   Clear
12:32 PM 82.4 °F 82.9 °F 60.8 °F 48% 29.83 in 10.0 mi SSE 4.6 mph 17.3 mph N/A   Clear
12:53 PM 82.4 °F 83.4 °F 62.6 °F 51% 29.83 in 10.0 mi SSE 4.6 mph - N/A   Clear
1:13 PM 82.4 °F 83.4 °F 62.6 °F 51% 29.82 in 10.0 mi South 8.1 mph - N/A   Clear
1:32 PM 84.2 °F 85.0 °F 62.6 °F 48% 29.82 in 10.0 mi SSE 9.2 mph - N/A   Clear
1:53 PM 82.4 °F 83.4 °F 62.6 °F 51% 29.81 in 10.0 mi SSE 8.1 mph 16.1 mph N/A   Clear
2:13 PM 84.2 °F 85.0 °F 62.6 °F 48% 29.81 in 10.0 mi SSE 5.8 mph - N/A   Clear
2:32 PM 84.2 °F 85.0 °F 62.6 °F 48% 29.82 in 10.0 mi SSE 6.9 mph - N/A   Clear
2:53 PM 86.0 °F 86.6 °F 62.6 °F 45% 29.82 in 10.0 mi South 6.9 mph - N/A   Clear
3:12 PM 86.0 °F 86.6 °F 62.6 °F 45% 29.81 in 10.0 mi South 6.9 mph - N/A   Clear
3:33 PM 87.8 °F 88.5 °F 62.6 °F 43% 29.81 in 10.0 mi South 9.2 mph 16.1 mph N/A   Clear
3:53 PM 87.8 °F 88.5 °F 62.6 °F 43% 29.80 in 10.0 mi South 9.2 mph - N/A   Clear
4:13 PM 87.8 °F 89.4 °F 64.4 °F 46% 29.79 in 10.0 mi SSE 6.9 mph 16.1 mph N/A   Clear
4:33 PM 87.8 °F 88.5 °F 62.6 °F 43% 29.79 in 10.0 mi South 6.9 mph 19.6 mph N/A   Clear
4:53 PM 89.6 °F 91.1 °F 64.4 °F 43% 29.79 in 10.0 mi South 6.9 mph - N/A   Clear
5:13 PM 89.6 °F 89.5 °F 60.8 °F 38% 29.78 in 10.0 mi South 8.1 mph - N/A   Scattered Clouds
5:33 PM 89.6 °F 88.9 °F 59.0 °F 36% 29.78 in 10.0 mi South 9.2 mph - N/A   Scattered Clouds
5:52 PM 89.6 °F 88.9 °F 59.0 °F 36% 29.78 in 10.0 mi SSW 10.4 mph 17.3 mph N/A   Scattered Clouds
6:13 PM 89.6 °F 89.5 °F 60.8 °F 38% 29.78 in 10.0 mi South 5.8 mph - N/A   Scattered Clouds
6:33 PM 89.6 °F 89.5 °F 60.8 °F 38% 29.78 in 10.0 mi South 5.8 mph - N/A   Clear
6:52 PM 87.8 °F 87.6 °F 60.8 °F 40% 29.78 in 10.0 mi South 4.6 mph - N/A   Scattered Clouds
7:13 PM 86.0 °F 86.1 °F 60.8 °F 43% 29.79 in 10.0 mi South 6.9 mph - N/A   Scattered Clouds
7:33 PM 86.0 °F 86.1 °F 60.8 °F 43% 29.79 in 10.0 mi South 5.8 mph - N/A   Scattered Clouds
7:52 PM 84.2 °F 84.4 °F 60.8 °F 45% 29.79 in 10.0 mi South 4.6 mph - N/A   Scattered Clouds
8:13 PM 84.2 °F 84.4 °F 60.8 °F 45% 29.79 in 10.0 mi South 3.5 mph - N/A   Scattered Clouds
8:33 PM 84.2 °F 84.4 °F 60.8 °F 45% 29.79 in 10.0 mi SSE 3.5 mph - N/A   Clear
8:52 PM 82.4 °F 82.9 °F 60.8 °F 48% 29.79 in 10.0 mi South 3.5 mph - N/A   Clear
9:13 PM 82.4 °F 82.9 °F 60.8 °F 48% 29.80 in 10.0 mi Calm Calm - N/A   Clear
9:33 PM 80.6 °F 81.5 °F 60.8 °F 51% 29.81 in 10.0 mi SSE 3.5 mph - N/A   Scattered Clouds
9:52 PM 80.6 °F 81.5 °F 60.8 °F 51% 29.82 in 10.0 mi SSE 3.5 mph - N/A   Scattered Clouds
10:13 PM 80.6 °F 81.5 °F 60.8 °F 51% 29.83 in 10.0 mi SSE 4.6 mph - N/A   Clear
10:33 PM 78.8 °F - 62.6 °F 57% 29.83 in 10.0 mi South 4.6 mph - N/A   Clear
10:52 PM 78.8 °F - 62.6 °F 57% 29.83 in 10.0 mi South 4.6 mph - N/A   Clear
11:13 PM 78.8 °F - 62.6 °F 57% 29.84 in 10.0 mi SSW 4.6 mph - N/A   Clear
11:33 PM 78.8 °F - 62.6 °F 57% 29.84 in 10.0 mi South 4.6 mph - N/A   Clear
11:52 PM 78.8 °F - 62.6 °F 57% 29.84 in 10.0 mi SSW 5.8 mph - N/A   Clear